| time (UTC) | temp F | wind direction | speed MPH | gust MPH | rain 1hr in | rain 24hr in | rain mn in | humidity % | barometer mb |
| 20260509214005 | 54 | 351 | 2.0 | 3.0 | 0.00 | 0.00 | 0.00 | 80 | 1016.4 |
| 20260509213505 | 54 | 352 | 2.0 | 4.0 | 0.00 | 0.00 | 0.00 | 79 | 1016.4 |
| 20260509213006 | 54 | 358 | 1.0 | 5.0 | 0.00 | 0.00 | 0.00 | 79 | 1016.5 |
| 20260509212506 | 54 | 2 | 1.0 | 5.0 | 0.00 | 0.00 | 0.00 | 79 | 1016.5 |
| 20260509211505 | 55 | 10 | 0.0 | 3.0 | 0.00 | 0.00 | 0.00 | 78 | 1016.6 |
| 20260509211006 | 55 | 15 | 1.0 | 6.0 | 0.00 | 0.00 | 0.00 | 77 | 1016.6 |
| 20260509210005 | 55 | 16 | 1.0 | 4.0 | 0.00 | 0.00 | 0.00 | 76 | 1016.6 |
| 20260509205505 | 55 | 15 | 1.0 | 5.0 | 0.00 | 0.00 | 0.00 | 76 | 1016.5 |
| 20260509205005 | 55 | 16 | 1.0 | 5.0 | 0.00 | 0.00 | 0.00 | 76 | 1016.5 |
| 20260509204006 | 56 | 10 | 2.0 | 8.0 | 0.00 | 0.00 | 0.00 | 75 | 1016.5 |
| 20260509203505 | 56 | 10 | 2.0 | 8.0 | 0.00 | 0.00 | 0.00 | 75 | 1016.4 |
| 20260509203005 | 56 | 3 | 2.0 | 5.0 | 0.00 | 0.00 | 0.00 | 75 | 1016.3 |
| 20260509202505 | 56 | 358 | 2.0 | 5.0 | 0.00 | 0.00 | 0.00 | 75 | 1016.3 |
| 20260509202005 | 56 | 7 | 1.0 | 5.0 | 0.00 | 0.00 | 0.00 | 74 | 1016.3 |
| 20260509201505 | 56 | 6 | 0.0 | 3.0 | 0.00 | 0.00 | 0.00 | 74 | 1016.4 |
| 20260509201006 | 56 | 6 | 1.0 | 3.0 | 0.00 | 0.00 | 0.00 | 73 | 1016.5 |
| 20260509200505 | 56 | 5 | 0.0 | 3.0 | 0.00 | 0.00 | 0.00 | 72 | 1016.5 |
| 20260509195505 | 57 | 348 | 0.0 | 4.0 | 0.00 | 0.00 | 0.00 | 71 | 1016.5 |
| 20260509195005 | 57 | 6 | 0.0 | 2.0 | 0.00 | 0.00 | 0.00 | 72 | 1016.5 |
| 20260509194505 | 57 | 18 | 0.0 | 4.0 | 0.00 | 0.00 | 0.00 | 72 | 1016.4 |
| 20260509194005 | 57 | 23 | 1.0 | 4.0 | 0.00 | 0.00 | 0.00 | 71 | 1016.4 |
| 20260509193505 | 58 | 26 | 1.0 | 4.0 | 0.00 | 0.00 | 0.00 | 70 | 1016.4 |
| 20260509192507 | 58 | 14 | 0.0 | 2.0 | 0.00 | 0.00 | 0.00 | 69 | 1016.4 |
| 20260509192006 | 58 | 8 | 1.0 | 5.0 | 0.00 | 0.00 | 0.00 | 69 | 1016.4 |
| 20260509191505 | 59 | 11 | 1.0 | 5.0 | 0.00 | 0.00 | 0.00 | 68 | 1016.3 |
| 20260509190505 | 59 | 16 | 2.0 | 4.0 | 0.00 | 0.00 | 0.00 | 67 | 1016.2 |
| 20260509185506 | 60 | 17 | 1.0 | 3.0 | 0.00 | 0.00 | 0.00 | 66 | 1016.2 |
| 20260509185020 | 60 | 17 | 2.0 | 4.0 | 0.00 | 0.00 | 0.00 | 66 | 1016.2 |
| 20260509184506 | 60 | 15 | 1.0 | 4.0 | 0.00 | 0.00 | 0.00 | 66 | 1016.2 |
| 20260509183505 | 61 | 359 | 1.0 | 5.0 | 0.00 | 0.00 | 0.00 | 64 | 1016.1 |
| 20260509183005 | 61 | 356 | 1.0 | 5.0 | 0.00 | 0.00 | 0.00 | 64 | 1016.0 |
| 20260509182505 | 62 | 15 | 1.0 | 5.0 | 0.00 | 0.00 | 0.00 | 63 | 1016.0 |
| 20260509182006 | 62 | 16 | 1.0 | 5.0 | 0.00 | 0.00 | 0.00 | 63 | 1016.0 |
| 20260509181505 | 62 | 9 | 1.0 | 5.0 | 0.00 | 0.00 | 0.00 | 61 | 1015.9 |
| 20260509181005 | 62 | 11 | 1.0 | 5.0 | 0.00 | 0.00 | 0.00 | 60 | 1015.9 |
| 20260509180506 | 62 | 17 | 1.0 | 5.0 | 0.00 | 0.00 | 0.00 | 61 | 1015.9 |
| 20260509180005 | 63 | 15 | 2.0 | 7.0 | 0.00 | 0.00 | 0.00 | 59 | 1015.9 |
| 20260509175005 | 63 | 14 | 3.0 | 9.0 | 0.00 | 0.00 | 0.00 | 58 | 1015.9 |
| 20260509174505 | 63 | 16 | 3.0 | 9.0 | 0.00 | 0.00 | 0.00 | 58 | 1015.9 |
| 20260509174005 | 64 | 359 | 2.0 | 6.0 | 0.00 | 0.00 | 0.00 | 57 | 1016.0 |
| 20260509173505 | 64 | 344 | 1.0 | 7.0 | 0.00 | 0.00 | 0.00 | 55 | 1016.0 |
| 20260509173006 | 64 | 350 | 2.0 | 7.0 | 0.00 | 0.00 | 0.00 | 54 | 1016.1 |
| 20260509172505 | 64 | 343 | 2.0 | 7.0 | 0.00 | 0.00 | 0.00 | 54 | 1016.1 |
| 20260509172005 | 65 | 339 | 1.0 | 5.0 | 0.00 | 0.00 | 0.00 | 54 | 1016.1 |
| 20260509171505 | 65 | 2 | 1.0 | 5.0 | 0.00 | 0.00 | 0.00 | 54 | 1016.0 |
| 20260509171005 | 65 | 13 | 2.0 | 9.0 | 0.00 | 0.00 | 0.00 | 56 | 1016.1 |
| 20260509170505 | 65 | 4 | 2.0 | 9.0 | 0.00 | 0.00 | 0.00 | 54 | 1016.0 |
| 20260509170005 | 65 | 346 | 2.0 | 7.0 | 0.00 | 0.00 | 0.00 | 56 | 1016.0 |
| 20260509165505 | 65 | 356 | 2.0 | 6.0 | 0.00 | 0.00 | 0.00 | 54 | 1016.1 |
| 20260509165006 | 65 | 11 | 3.0 | 9.0 | 0.00 | 0.00 | 0.00 | 54 | 1016.1 |
| 20260509164506 | 65 | 12 | 3.0 | 9.0 | 0.00 | 0.00 | 0.00 | 53 | 1016.1 |
| 20260509164005 | 65 | 7 | 3.0 | 9.0 | 0.00 | 0.00 | 0.00 | 55 | 1016.1 |
| 20260509163505 | 65 | 357 | 2.0 | 7.0 | 0.00 | 0.00 | 0.00 | 52 | 1016.1 |
| 20260509163005 | 65 | 14 | 2.0 | 8.0 | 0.00 | 0.00 | 0.00 | 51 | 1016.1 |
| 20260509162505 | 65 | 6 | 3.0 | 8.0 | 0.00 | 0.00 | 0.00 | 51 | 1016.1 |
| 20260509162006 | 65 | 344 | 2.0 | 7.0 | 0.00 | 0.00 | 0.00 | 52 | 1016.1 |
| 20260509161507 | 65 | 356 | 2.0 | 6.0 | 0.00 | 0.00 | 0.00 | 51 | 1016.1 |
| 20260509161005 | 65 | 23 | 3.0 | 9.0 | 0.00 | 0.00 | 0.00 | 52 | 1016.1 |
| 20260509160505 | 65 | 22 | 4.0 | 9.0 | 0.00 | 0.00 | 0.00 | 51 | 1016.1 |
| 20260509160005 | 66 | 15 | 2.0 | 7.0 | 0.00 | 0.00 | 0.00 | 52 | 1016.0 |
| 20260509155506 | 66 | 17 | 2.0 | 9.0 | 0.00 | 0.00 | 0.00 | 51 | 1016.0 |
| 20260509155005 | 67 | 16 | 4.0 | 9.0 | 0.00 | 0.00 | 0.00 | 48 | 1016.0 |
| 20260509154005 | 68 | 9 | 3.0 | 8.0 | 0.00 | 0.00 | 0.00 | 49 | 1015.9 |
| 20260509153506 | 68 | 4 | 2.0 | 8.0 | 0.00 | 0.00 | 0.00 | 48 | 1015.9 |
| 20260509153007 | 68 | 3 | 3.0 | 9.0 | 0.00 | 0.00 | 0.00 | 48 | 1015.9 |
| 20260509152505 | 69 | 10 | 4.0 | 9.0 | 0.00 | 0.00 | 0.00 | 50 | 1016.0 |
| 20260509152006 | 68 | 7 | 3.0 | 9.0 | 0.00 | 0.00 | 0.00 | 50 | 1016.0 |
| 20260509151506 | 67 | 335 | 2.0 | 7.0 | 0.00 | 0.00 | 0.00 | 52 | 1016.1 |
| 20260509151005 | 67 | 323 | 1.0 | 6.0 | 0.00 | 0.00 | 0.00 | 49 | 1016.2 |
| 20260509150505 | 67 | 20 | 0.0 | 3.0 | 0.00 | 0.00 | 0.00 | 47 | 1016.2 |
| 20260509150005 | 68 | 26 | 1.0 | 7.0 | 0.00 | 0.00 | 0.00 | 46 | 1016.2 |
| 20260509145505 | 68 | 7 | 2.0 | 7.0 | 0.00 | 0.00 | 0.00 | 48 | 1016.2 |
| 20260509145006 | 68 | 322 | 1.0 | 4.0 | 0.00 | 0.00 | 0.00 | 47 | 1016.2 |
| 20260509144506 | 67 | 319 | 1.0 | 4.0 | 0.00 | 0.00 | 0.00 | 50 | 1016.2 |
| 20260509144006 | 66 | 358 | 1.0 | 5.0 | 0.00 | 0.00 | 0.00 | 50 | 1016.2 |
| 20260509143505 | 66 | 19 | 1.0 | 5.0 | 0.00 | 0.00 | 0.00 | 51 | 1016.2 |
| 20260509142506 | 67 | 331 | 1.0 | 5.0 | 0.00 | 0.00 | 0.00 | 48 | 1016.3 |
| 20260509141505 | 69 | 37 | 4.0 | 8.0 | 0.00 | 0.00 | 0.00 | 49 | 1016.5 |
| 20260509140506 | 69 | 25 | 3.0 | 9.0 | 0.00 | 0.00 | 0.00 | 49 | 1016.5 |
| 20260509140006 | 68 | 11 | 1.0 | 6.0 | 0.00 | 0.00 | 0.00 | 51 | 1016.5 |
| 20260509134006 | 69 | 17 | 2.0 | 6.0 | 0.00 | 0.00 | 0.00 | 46 | 1016.8 |
| 20260509133506 | 69 | 20 | 1.0 | 6.0 | 0.00 | 0.00 | 0.00 | 51 | 1016.9 |
| 20260509133005 | 68 | 32 | 1.0 | 5.0 | 0.00 | 0.00 | 0.00 | 47 | 1017.0 |
| 20260509132506 | 69 | 32 | 1.0 | 5.0 | 0.00 | 0.00 | 0.00 | 49 | 1017.1 |
| 20260509132005 | 68 | 25 | 0.0 | 5.0 | 0.00 | 0.00 | 0.00 | 51 | 1017.1 |
| 20260509131505 | 66 | 25 | 1.0 | 4.0 | 0.00 | 0.00 | 0.00 | 53 | 1017.2 |
| 20260509131006 | 66 | 26 | 1.0 | 4.0 | 0.00 | 0.00 | 0.00 | 53 | 1017.2 |
| 20260509130505 | 66 | 11 | 1.0 | 3.0 | 0.00 | 0.00 | 0.00 | 51 | 1017.3 |
| 20260509130005 | 66 | 12 | 1.0 | 4.0 | 0.00 | 0.00 | 0.00 | 50 | 1017.3 |
| 20260509125005 | 67 | 18 | 2.0 | 7.0 | 0.00 | 0.00 | 0.00 | 52 | 1017.4 |
| 20260509124505 | 68 | 31 | 1.0 | 7.0 | 0.00 | 0.00 | 0.00 | 52 | 1017.5 |
| 20260509124005 | 70 | 53 | 1.0 | 4.0 | 0.00 | 0.00 | 0.00 | 44 | 1017.5 |
| 20260509123505 | 69 | 46 | 1.0 | 4.0 | 0.00 | 0.00 | 0.00 | 48 | 1017.4 |
| 20260509123005 | 69 | 42 | 0.0 | 4.0 | 0.00 | 0.00 | 0.00 | 50 | 1017.4 |
| 20260509122006 | 69 | 45 | 1.0 | 4.0 | 0.00 | 0.00 | 0.00 | 54 | 1017.5 |
| 20260509121005 | 67 | 28 | 1.0 | 5.0 | 0.00 | 0.00 | 0.00 | 56 | 1017.5 |
| 20260509120506 | 65 | 19 | 1.0 | 4.0 | 0.00 | 0.00 | 0.00 | 56 | 1017.6 |
| 20260509120006 | 65 | 16 | 1.0 | 4.0 | 0.00 | 0.00 | 0.00 | 55 | 1017.7 |
| 20260509115505 | 66 | 354 | 1.0 | 4.0 | 0.00 | 0.00 | 0.00 | 51 | 1017.8 |
| 20260509115006 | 67 | 11 | 2.0 | 9.0 | 0.00 | 0.00 | 0.00 | 53 | 1017.8 |
| 20260509114505 | 70 | 22 | 2.0 | 9.0 | 0.00 | 0.00 | 0.00 | 53 | 1017.9 |
| 20260509114006 | 69 | 38 | 1.0 | 7.0 | 0.00 | 0.00 | 0.00 | 51 | 1017.9 |
| 20260509113005 | 69 | 53 | 1.0 | 7.0 | 0.00 | 0.00 | 0.00 | 51 | 1018.0 |
| 20260509112505 | 69 | 30 | 2.0 | 9.0 | 0.00 | 0.00 | 0.00 | 51 | 1018.1 |
| 20260509112005 | 69 | 24 | 2.0 | 9.0 | 0.00 | 0.00 | 0.00 | 54 | 1018.1 |
| 20260509111505 | 69 | 39 | 1.0 | 6.0 | 0.00 | 0.00 | 0.00 | 52 | 1018.1 |
| 20260509111005 | 68 | 25 | 2.0 | 6.0 | 0.00 | 0.00 | 0.00 | 52 | 1018.2 |
| 20260509110506 | 67 | 17 | 3.0 | 10.0 | 0.00 | 0.00 | 0.00 | 55 | 1018.2 |
| 20260509110005 | 66 | 23 | 4.0 | 10.0 | 0.00 | 0.00 | 0.00 | 58 | 1018.3 |
| 20260509105505 | 68 | 30 | 3.0 | 8.0 | 0.00 | 0.00 | 0.00 | 56 | 1018.3 |
| 20260509105005 | 68 | 33 | 2.0 | 8.0 | 0.00 | 0.00 | 0.00 | 58 | 1018.4 |
| 20260509104506 | 68 | 34 | 3.0 | 9.0 | 0.00 | 0.00 | 0.00 | 55 | 1018.3 |
| 20260509103005 | 67 | 33 | 2.0 | 8.0 | 0.00 | 0.00 | 0.00 | 60 | 1018.6 |
| 20260509102505 | 67 | 17 | 1.0 | 6.0 | 0.00 | 0.00 | 0.00 | 57 | 1018.6 |
| 20260509102005 | 67 | 38 | 2.0 | 7.0 | 0.00 | 0.00 | 0.00 | 61 | 1018.6 |
| 20260509101005 | 67 | 36 | 2.0 | 8.0 | 0.00 | 0.00 | 0.00 | 58 | 1018.7 |
| 20260509100506 | 67 | 32 | 2.0 | 8.0 | 0.00 | 0.00 | 0.00 | 61 | 1018.7 |
| 20260509100006 | 67 | 27 | 3.0 | 8.0 | 0.00 | 0.00 | 0.00 | 61 | 1018.8 |
| 20260509095505 | 67 | 29 | 3.0 | 8.0 | 0.00 | 0.00 | 0.00 | 58 | 1018.7 |
| 20260509094505 | 67 | 47 | 4.0 | 8.0 | 0.00 | 0.00 | 0.00 | 64 | 1018.7 |
| 20260509094005 | 67 | 43 | 4.0 | 8.0 | 0.00 | 0.00 | 0.00 | 64 | 1018.7 |
| 20260509093006 | 66 | 46 | 4.0 | 8.0 | 0.00 | 0.00 | 0.00 | 62 | 1018.7 |
| 20260509092505 | 66 | 35 | 3.0 | 8.0 | 0.00 | 0.00 | 0.00 | 61 | 1018.7 |
| 20260509092005 | 66 | 24 | 4.0 | 10.0 | 0.00 | 0.00 | 0.00 | 60 | 1018.8 |
| 20260509091506 | 66 | 24 | 5.0 | 10.0 | 0.00 | 0.00 | 0.00 | 62 | 1018.8 |
| 20260509085505 | 65 | 45 | 4.0 | 8.0 | 0.00 | 0.00 | 0.00 | 64 | 1018.8 |
| 20260509084506 | 65 | 42 | 3.0 | 8.0 | 0.00 | 0.00 | 0.00 | 66 | 1018.8 |
| 20260509084005 | 64 | 48 | 3.0 | 8.0 | 0.00 | 0.00 | 0.00 | 68 | 1018.8 |
| 20260509083505 | 64 | 48 | 4.0 | 8.0 | 0.00 | 0.00 | 0.00 | 66 | 1018.8 |
| 20260509083006 | 64 | 46 | 4.0 | 9.0 | 0.00 | 0.00 | 0.00 | 67 | 1018.7 |
| 20260509082505 | 64 | 43 | 5.0 | 9.0 | 0.00 | 0.00 | 0.00 | 68 | 1018.8 |
| 20260509082006 | 64 | 36 | 5.0 | 8.0 | 0.00 | 0.00 | 0.00 | 71 | 1018.7 |
| 20260509081505 | 64 | 33 | 4.0 | 8.0 | 0.00 | 0.00 | 0.00 | 72 | 1018.7 |
| 20260509081020 | 63 | 33 | 4.0 | 8.0 | 0.00 | 0.00 | 0.00 | 71 | 1018.7 |
| 20260509080505 | 63 | 34 | 4.0 | 7.0 | 0.00 | 0.00 | 0.00 | 72 | 1018.7 |
| 20260509080006 | 63 | 41 | 5.0 | 9.0 | 0.00 | 0.00 | 0.00 | 74 | 1018.8 |
| 20260509075005 | 62 | 45 | 5.0 | 9.0 | 0.00 | 0.00 | 0.00 | 75 | 1018.8 |
| 20260509074506 | 62 | 43 | 5.0 | 9.0 | 0.00 | 0.00 | 0.00 | 76 | 1018.7 |
| 20260509073506 | 60 | 42 | 5.0 | 9.0 | 0.00 | 0.00 | 0.00 | 78 | 1018.8 |
| 20260509073006 | 60 | 42 | 6.0 | 9.0 | 0.00 | 0.00 | 0.00 | 79 | 1018.8 |
| 20260509072505 | 59 | 35 | 6.0 | 9.0 | 0.00 | 0.00 | 0.00 | 80 | 1018.7 |
| 20260509072005 | 59 | 32 | 5.0 | 8.0 | 0.00 | 0.00 | 0.00 | 82 | 1018.8 |
| 20260509071505 | 58 | 31 | 4.0 | 8.0 | 0.00 | 0.00 | 0.00 | 83 | 1018.8 |
| 20260509071007 | 58 | 35 | 4.0 | 8.0 | 0.00 | 0.00 | 0.00 | 84 | 1018.8 |
| 20260509070506 | 57 | 34 | 4.0 | 8.0 | 0.00 | 0.00 | 0.00 | 85 | 1018.8 |
| 20260509070006 | 56 | 30 | 4.0 | 8.0 | 0.00 | 0.00 | 0.00 | 85 | 1018.8 |
| 20260509065006 | 55 | 36 | 4.0 | 6.0 | 0.00 | 0.00 | 0.00 | 87 | 1019.0 |
| 20260509064507 | 54 | 31 | 3.0 | 5.0 | 0.00 | 0.00 | 0.00 | 88 | 1018.9 |
| 20260509064005 | 54 | 34 | 3.0 | 5.0 | 0.00 | 0.00 | 0.00 | 88 | 1018.9 |
| 20260509063505 | 53 | 42 | 3.0 | 6.0 | 0.00 | 0.00 | 0.00 | 89 | 1019.0 |
| 20260509063005 | 53 | 37 | 3.0 | 6.0 | 0.00 | 0.00 | 0.00 | 89 | 1019.0 |
| 20260509062506 | 53 | 30 | 3.0 | 5.0 | 0.00 | 0.00 | 0.00 | 89 | 1018.9 |
| 20260509061005 | 51 | 40 | 4.0 | 7.0 | 0.00 | 0.00 | 0.00 | 90 | 1018.9 |
| 20260509060506 | 51 | 36 | 3.0 | 6.0 | 0.00 | 0.00 | 0.00 | 91 | 1019.0 |
| 20260509055506 | 50 | 35 | 3.0 | 5.0 | 0.00 | 0.00 | 0.00 | 92 | 1019.0 |
| 20260509055005 | 50 | 34 | 2.0 | 4.0 | 0.00 | 0.00 | 0.00 | 92 | 1019.0 |
| 20260509054505 | 49 | 35 | 1.0 | 4.0 | 0.00 | 0.00 | 0.00 | 92 | 1018.9 |
| 20260509053006 | 48 | 0 | 0.0 | 0.0 | 0.00 | 0.00 | 0.00 | 93 | 1018.8 |
| 20260509052505 | 48 | 0 | 0.0 | 0.0 | 0.00 | 0.00 | 0.00 | 93 | 1018.7 |
| 20260509052005 | 48 | 0 | 0.0 | 0.0 | 0.00 | 0.00 | 0.00 | 93 | 1018.7 |
| 20260509051005 | 47 | 0 | 0.0 | 0.0 | 0.00 | 0.00 | 0.00 | 93 | 1018.7 |
| 20260509050506 | 47 | 0 | 0.0 | 0.0 | 0.00 | 0.00 | 0.00 | 93 | 1018.7 |
| 20260509045506 | 47 | 0 | 0.0 | 0.0 | 0.00 | 0.00 | 0.00 | 93 | 1018.7 |
| 20260509044506 | 46 | 0 | 0.0 | 0.0 | 0.00 | 0.00 | 0.00 | 93 | 1018.6 |
| 20260509044005 | 46 | 0 | 0.0 | 0.0 | 0.00 | 0.00 | 0.00 | 93 | 1018.5 |
| 20260509043505 | 46 | 0 | 0.0 | 0.0 | 0.00 | 0.00 | 0.00 | 93 | 1018.5 |
| 20260509043006 | 46 | 0 | 0.0 | 0.0 | 0.00 | 0.00 | 0.00 | 93 | 1018.5 |
| 20260509042506 | 46 | 0 | 0.0 | 0.0 | 0.00 | 0.00 | 0.00 | 93 | 1018.5 |
| 20260509042006 | 45 | 0 | 0.0 | 0.0 | 0.00 | 0.00 | 0.00 | 92 | 1018.4 |
| 20260509041506 | 46 | 0 | 0.0 | 0.0 | 0.00 | 0.00 | 0.00 | 92 | 1018.4 |
| 20260509041006 | 46 | 0 | 0.0 | 0.0 | 0.00 | 0.00 | 0.00 | 92 | 1018.4 |
| 20260509040506 | 46 | 0 | 0.0 | 0.0 | 0.00 | 0.00 | 0.00 | 92 | 1018.4 |
| 20260509040006 | 46 | 0 | 0.0 | 0.0 | 0.00 | 0.00 | 0.00 | 92 | 1018.3 |
| 20260509035506 | 46 | 0 | 0.0 | 0.0 | 0.00 | 0.00 | 0.00 | 92 | 1018.3 |
| 20260509035006 | 46 | 0 | 0.0 | 0.0 | 0.00 | 0.00 | 0.00 | 93 | 1018.4 |
| 20260509034006 | 45 | 0 | 0.0 | 0.0 | 0.00 | 0.00 | 0.00 | 92 | 1018.4 |
| 20260509033506 | 45 | 0 | 0.0 | 0.0 | 0.00 | 0.00 | 0.00 | 92 | 1018.4 |
| 20260509033006 | 46 | 0 | 0.0 | 0.0 | 0.00 | 0.00 | 0.00 | 92 | 1018.4 |
| 20260509032506 | 46 | 0 | 0.0 | 0.0 | 0.00 | 0.00 | 0.00 | 92 | 1018.5 |
| 20260509031505 | 46 | 0 | 0.0 | 0.0 | 0.00 | 0.00 | 0.00 | 91 | 1018.5 |
| 20260509030505 | 46 | 0 | 0.0 | 0.0 | 0.00 | 0.00 | 0.00 | 91 | 1018.6 |
| 20260509030006 | 47 | 0 | 0.0 | 0.0 | 0.00 | 0.00 | 0.00 | 91 | 1018.5 |
| 20260509025506 | 47 | 0 | 0.0 | 0.0 | 0.00 | 0.00 | 0.00 | 92 | 1018.5 |
| 20260509024506 | 46 | 0 | 0.0 | 0.0 | 0.00 | 0.00 | 0.00 | 91 | 1018.5 |
| 20260509024006 | 46 | 0 | 0.0 | 0.0 | 0.00 | 0.00 | 0.00 | 91 | 1018.6 |
| 20260509023506 | 46 | 0 | 0.0 | 0.0 | 0.00 | 0.00 | 0.00 | 91 | 1018.5 |
| 20260509022506 | 46 | 0 | 0.0 | 0.0 | 0.00 | 0.00 | 0.00 | 91 | 1018.5 |
| 20260509022006 | 46 | 0 | 0.0 | 0.0 | 0.00 | 0.00 | 0.00 | 91 | 1018.5 |
| 20260509021507 | 46 | 0 | 0.0 | 0.0 | 0.00 | 0.00 | 0.00 | 91 | 1018.5 |
| 20260509021005 | 46 | 0 | 0.0 | 0.0 | 0.00 | 0.00 | 0.00 | 91 | 1018.5 |
| 20260509020505 | 46 | 0 | 0.0 | 0.0 | 0.00 | 0.00 | 0.00 | 91 | 1018.5 |
| 20260509020003 | 46 | 0 | 0.0 | 0.0 | 0.00 | 0.00 | 0.00 | 91 | 1018.5 |
| 20260509015006 | 46 | 0 | 0.0 | 0.0 | 0.00 | 0.00 | 0.00 | 91 | 1018.5 |
| 20260509014505 | 46 | 0 | 0.0 | 0.0 | 0.00 | 0.00 | 0.00 | 91 | 1018.5 |
| 20260509013006 | 46 | 0 | 0.0 | 0.0 | 0.00 | 0.00 | 0.00 | 91 | 1018.5 |
| 20260509012006 | 46 | 0 | 0.0 | 0.0 | 0.00 | 0.00 | 0.00 | 91 | 1018.6 |
| 20260509011005 | 46 | 0 | 0.0 | 0.0 | 0.00 | 0.00 | 0.00 | 90 | 1018.6 |
| 20260509010505 | 46 | 0 | 0.0 | 0.0 | 0.00 | 0.00 | 0.00 | 90 | 1018.6 |
| 20260509010005 | 46 | 0 | 0.0 | 0.0 | 0.00 | 0.00 | 0.00 | 90 | 1018.6 |
| 20260509005005 | 47 | 0 | 0.0 | 0.0 | 0.00 | 0.00 | 0.00 | 90 | 1018.6 |
| 20260509004006 | 47 | 0 | 0.0 | 0.0 | 0.00 | 0.00 | 0.00 | 90 | 1018.5 |
| 20260509003006 | 47 | 0 | 0.0 | 0.0 | 0.00 | 0.00 | 0.00 | 90 | 1018.5 |
| 20260509002506 | 47 | 0 | 0.0 | 0.0 | 0.00 | 0.00 | 0.00 | 90 | 1018.5 |
| 20260509002007 | 47 | 0 | 0.0 | 0.0 | 0.00 | 0.00 | 0.00 | 90 | 1018.5 |
| 20260509001506 | 48 | 0 | 0.0 | 0.0 | 0.00 | 0.00 | 0.00 | 90 | 1018.6 |
| 20260509001006 | 48 | 0 | 0.0 | 0.0 | 0.00 | 0.00 | 0.00 | 89 | 1018.5 |
| 20260509000506 | 49 | 0 | 0.0 | 0.0 | 0.00 | 0.00 | 0.00 | 90 | 1018.5 |
| 20260509000005 | 49 | 0 | 0.0 | 0.0 | 0.00 | 0.00 | 0.00 | 90 | 1018.6 |
| 20260508235005 | 49 | 0 | 0.0 | 0.0 | 0.00 | 0.00 | 0.00 | 89 | 1018.6 |
| 20260508234505 | 49 | 0 | 0.0 | 0.0 | 0.00 | 0.00 | 0.00 | 89 | 1018.6 |
| 20260508233505 | 49 | 0 | 0.0 | 0.0 | 0.00 | 0.00 | 0.00 | 89 | 1018.6 |
| 20260508233006 | 49 | 0 | 0.0 | 0.0 | 0.00 | 0.00 | 0.00 | 89 | 1018.6 |
| 20260508232505 | 49 | 0 | 0.0 | 0.0 | 0.00 | 0.00 | 0.00 | 89 | 1018.6 |
| 20260508232005 | 50 | 0 | 0.0 | 0.0 | 0.00 | 0.00 | 0.00 | 89 | 1018.6 |
| 20260508231502 | 50 | 0 | 0.0 | 0.0 | 0.00 | 0.00 | 0.00 | 88 | 1018.6 |
| 20260508231005 | 50 | 0 | 0.0 | 0.0 | 0.00 | 0.00 | 0.00 | 88 | 1018.5 |
| 20260508230505 | 50 | 0 | 0.0 | 0.0 | 0.00 | 0.00 | 0.00 | 87 | 1018.5 |
| 20260508230005 | 50 | 0 | 0.0 | 0.0 | 0.00 | 0.00 | 0.00 | 87 | 1018.5 |
| 20260508225507 | 50 | 0 | 0.0 | 0.0 | 0.00 | 0.00 | 0.00 | 86 | 1018.5 |
| 20260508225006 | 50 | 0 | 0.0 | 0.0 | 0.00 | 0.00 | 0.00 | 86 | 1018.5 |
| 20260508224506 | 50 | 0 | 0.0 | 0.0 | 0.00 | 0.00 | 0.00 | 86 | 1018.5 |
| 20260508224006 | 51 | 0 | 0.0 | 0.0 | 0.00 | 0.00 | 0.00 | 86 | 1018.6 |
| 20260508223506 | 51 | 0 | 0.0 | 0.0 | 0.00 | 0.00 | 0.00 | 85 | 1018.6 |
| 20260508223006 | 51 | 0 | 0.0 | 0.0 | 0.00 | 0.00 | 0.00 | 86 | 1018.6 |
| 20260508222505 | 51 | 0 | 0.0 | 0.0 | 0.00 | 0.00 | 0.00 | 86 | 1018.6 |
| 20260508222006 | 51 | 0 | 0.0 | 0.0 | 0.00 | 0.00 | 0.00 | 85 | 1018.6 |
| 20260508221505 | 51 | 0 | 0.0 | 0.0 | 0.00 | 0.00 | 0.00 | 85 | 1018.6 |
| 20260508221005 | 51 | 0 | 0.0 | 0.0 | 0.00 | 0.00 | 0.00 | 85 | 1018.6 |
| 20260508220506 | 52 | 0 | 0.0 | 0.0 | 0.00 | 0.00 | 0.00 | 84 | 1018.6 |
| 20260508220006 | 52 | 0 | 0.0 | 0.0 | 0.00 | 0.00 | 0.00 | 84 | 1018.6 |
| 20260508215506 | 52 | 0 | 0.0 | 0.0 | 0.00 | 0.00 | 0.00 | 83 | 1018.6 |
| 20260508215006 | 52 | 0 | 0.0 | 0.0 | 0.00 | 0.00 | 0.00 | 83 | 1018.6 |